Back to catalog

Sitro-AIS-57

AliveCommunicationsSSO
NORAD 67256·PAYLOAD·🇷🇺 Russia

Launched Dec 28, 2025 from Vostochny Cosmodrome

Loading…

Next Passes (next 24 hours)

TLE

FreshSource: Space-Track

Epoch: Sep 14, 2026, 10:52 UTC

1 67256U 25313J   26257.45304176  .00006454  00000-0  26461-3 0  9993
2 67256  97.3854 330.7365 0016181  52.6934 307.5776 15.24481422 39546

Track Sitro-AIS-57 in real time with AllMySat

Download on the App Store